Accueil
METAR-TAF:

METAR-TAF

Aéroports :

Holbeach, Angleterre

RAF

latitude: 52-52N, longitude: 000-09E, altitude: 3 m

Observation

Le bulletin a été fait il y a 23 heures et 31 minutes, à 09:50 UTC
Vent 15 kt de ouest
Température 18°C
Humidité 68%
Pression 1008 hPa
Visibilité 10 km ou plus
Quelques nuages à une hauteur de 3000 ft

METAR: EGYH 180950Z 26015KT 9999 FEW030 18/12 Q1008 BLU

Heure: 10:21 (09:21 UTC)


TAF: absent

Observations et prévisions météorologiques de plus de 4000 aéroports (messages METAR et TAF).

Les stations disponibles sont représentées par des disques jaunes et rouges sur la carte.

Passer la souris dessus pour voir le nom de la station.

Cliquer dessus pour voir les observations et prévisions météorologiques.

Pour changer de carte: cliquez sur les boutons verts avec une croix noire pour zoomer, sur le bouton vert avec un tiret pour effectuer un zoom arrière, ou sur les flèches vertes pour les cartes adjacentes.


METAR-TAF: